| time (UTC) | temp F | wind direction | speed MPH | gust MPH | rain 1hr in | rain 24hr in | rain mn in | humidity % | barometer mb |
| 20260504034329 | 61 | 65 | 0.0 | 0.0 | 0.00 | 0.00 | 0.00 | 53 | 1006.6 |
| 20260504033853 | 61 | 227 | 0.0 | 0.0 | 0.00 | 0.00 | 0.00 | 52 | 1006.6 |
| 20260504033336 | 61 | 115 | 0.0 | 0.0 | 0.00 | 0.00 | 0.00 | 51 | 1006.6 |
| 20260504032856 | 61 | 87 | 0.0 | 0.0 | 0.00 | 0.00 | 0.00 | 51 | 1006.6 |
| 20260504032341 | 62 | 204 | 0.0 | 0.0 | 0.00 | 0.00 | 0.00 | 51 | 1006.6 |
| 20260504031824 | 62 | 157 | 0.0 | 0.0 | 0.00 | 0.00 | 0.00 | 51 | 1006.6 |
| 20260504031328 | 62 | 209 | 0.0 | 0.0 | 0.00 | 0.00 | 0.00 | 50 | 1006.6 |
| 20260504030832 | 62 | 34 | 0.0 | 0.0 | 0.00 | 0.00 | 0.00 | 50 | 1006.6 |
| 20260504030335 | 62 | 136 | 0.0 | 0.0 | 0.00 | 0.00 | 0.00 | 51 | 1006.4 |
| 20260504025838 | 62 | 202 | 0.0 | 0.0 | 0.00 | 0.00 | 0.00 | 49 | 1006.4 |
| 20260504025322 | 63 | 97 | 0.0 | 0.0 | 0.00 | 0.00 | 0.00 | 50 | 1006.4 |
| 20260504024825 | 63 | 293 | 0.0 | 0.0 | 0.00 | 0.00 | 0.00 | 49 | 1006.4 |
| 20260504024351 | 63 | 98 | 0.0 | 0.0 | 0.00 | 0.00 | 0.00 | 48 | 1006.3 |
| 20260504023830 | 63 | 206 | 0.0 | 0.0 | 0.00 | 0.00 | 0.00 | 48 | 1006.3 |
| 20260504023329 | 63 | 174 | 0.0 | 0.0 | 0.00 | 0.00 | 0.00 | 48 | 1006.3 |
| 20260504022830 | 64 | 130 | 0.0 | 0.0 | 0.00 | 0.00 | 0.00 | 47 | 1006.2 |
| 20260504022354 | 64 | 121 | 0.0 | 0.0 | 0.00 | 0.00 | 0.00 | 47 | 1006.2 |
| 20260504021835 | 64 | 168 | 0.0 | 0.0 | 0.00 | 0.00 | 0.00 | 46 | 1006.1 |
| 20260504021317 | 64 | 86 | 0.0 | 0.0 | 0.00 | 0.00 | 0.00 | 46 | 1006.2 |
| 20260504020843 | 65 | 76 | 0.0 | 0.0 | 0.00 | 0.00 | 0.00 | 45 | 1006.1 |
| 20260504020326 | 65 | 115 | 0.0 | 0.0 | 0.00 | 0.00 | 0.00 | 45 | 1006.1 |
| 20260504015828 | 65 | 226 | 0.0 | 0.0 | 0.00 | 0.00 | 0.00 | 44 | 1006.1 |
| 20260504015331 | 66 | 226 | 0.0 | 0.0 | 0.00 | 0.00 | 0.00 | 44 | 1006.1 |
| 20260504014834 | 66 | 360 | 0.0 | 0.0 | 0.00 | 0.00 | 0.00 | 43 | 1006.0 |
| 20260504014318 | 66 | 97 | 0.0 | 0.0 | 0.00 | 0.00 | 0.00 | 43 | 1006.1 |
| 20260504013843 | 67 | 360 | 0.0 | 0.0 | 0.00 | 0.00 | 0.00 | 43 | 1006.0 |
| 20260504013321 | 67 | 360 | 0.0 | 0.0 | 0.00 | 0.00 | 0.00 | 43 | 1005.9 |
| 20260504012824 | 67 | 360 | 0.0 | 0.0 | 0.00 | 0.00 | 0.00 | 42 | 1005.9 |
| 20260504012327 | 67 | 360 | 0.0 | 0.0 | 0.00 | 0.00 | 0.00 | 43 | 1005.9 |
| 20260504011830 | 68 | 360 | 0.0 | 0.0 | 0.00 | 0.00 | 0.00 | 42 | 1005.7 |
| 20260504011354 | 68 | 360 | 0.0 | 0.0 | 0.00 | 0.00 | 0.00 | 42 | 1005.8 |
| 20260504010836 | 69 | 360 | 0.0 | 0.0 | 0.00 | 0.00 | 0.00 | 41 | 1005.7 |
| 20260504010317 | 69 | 286 | 0.0 | 0.0 | 0.00 | 0.00 | 0.00 | 41 | 1005.6 |
| 20260504005820 | 69 | 78 | 0.0 | 0.0 | 0.00 | 0.00 | 0.00 | 40 | 1005.6 |
| 20260504005345 | 70 | 163 | 0.0 | 0.0 | 0.00 | 0.00 | 0.00 | 40 | 1005.6 |
| 20260504004828 | 70 | 34 | 0.0 | 0.0 | 0.00 | 0.00 | 0.00 | 40 | 1005.5 |
| 20260504004331 | 70 | 292 | 0.0 | 0.0 | 0.00 | 0.00 | 0.00 | 40 | 1005.5 |
| 20260504003834 | 70 | 25 | 0.0 | 0.0 | 0.00 | 0.00 | 0.00 | 39 | 1005.5 |
| 20260504003333 | 71 | 62 | 0.0 | 0.0 | 0.00 | 0.00 | 0.00 | 40 | 1005.5 |
| 20260504002837 | 71 | 250 | 0.0 | 0.0 | 0.00 | 0.00 | 0.00 | 38 | 1005.5 |
| 20260504002318 | 71 | 355 | 0.0 | 0.0 | 0.00 | 0.00 | 0.00 | 39 | 1005.5 |
| 20260504001821 | 72 | 147 | 0.0 | 0.0 | 0.00 | 0.00 | 0.00 | 39 | 1005.5 |
| 20260504001324 | 72 | 217 | 0.0 | 0.0 | 0.00 | 0.00 | 0.00 | 37 | 1005.5 |
| 20260504000828 | 72 | 242 | 0.0 | 0.0 | 0.00 | 0.00 | 0.00 | 37 | 1005.5 |
| 20260504000331 | 72 | 182 | 0.0 | 0.0 | 0.00 | 0.00 | 0.00 | 37 | 1005.5 |
| 20260503235834 | 72 | 271 | 0.0 | 0.0 | 0.00 | 0.00 | 0.00 | 38 | 1005.5 |
| 20260503235317 | 72 | 252 | 0.0 | 0.0 | 0.00 | 0.00 | 0.00 | 37 | 1005.5 |
| 20260503234820 | 72 | 134 | 0.0 | 0.0 | 0.00 | 0.00 | 0.00 | 38 | 1005.5 |
| 20260503234322 | 72 | 277 | 0.0 | 0.0 | 0.00 | 0.00 | 0.00 | 38 | 1005.5 |
| 20260503233823 | 72 | 228 | 0.0 | 0.0 | 0.00 | 0.00 | 0.00 | 37 | 1005.6 |
| 20260503233326 | 72 | 279 | 0.0 | 0.0 | 0.00 | 0.00 | 0.00 | 37 | 1005.5 |
| 20260503232830 | 73 | 163 | 0.0 | 0.0 | 0.00 | 0.00 | 0.00 | 40 | 1005.7 |
| 20260503232332 | 72 | 304 | 0.0 | 0.0 | 0.00 | 0.00 | 0.00 | 38 | 1005.7 |
| 20260503231817 | 72 | 198 | 0.0 | 0.0 | 0.00 | 0.00 | 0.00 | 37 | 1005.7 |
| 20260503231337 | 72 | 107 | 0.0 | 0.0 | 0.00 | 0.00 | 0.00 | 39 | 1005.8 |
| 20260503230820 | 72 | 317 | 0.0 | 1.0 | 0.00 | 0.00 | 0.00 | 39 | 1005.8 |
| 20260503230325 | 72 | 304 | 0.0 | 1.0 | 0.00 | 0.00 | 0.00 | 41 | 1005.9 |
| 20260503225849 | 73 | 251 | 0.0 | 0.0 | 0.00 | 0.00 | 0.00 | 40 | 1005.9 |
| 20260503225332 | 73 | 211 | 0.0 | 1.0 | 0.00 | 0.00 | 0.00 | 39 | 1005.8 |
| 20260503224835 | 73 | 252 | 0.0 | 1.0 | 0.00 | 0.00 | 0.00 | 38 | 1005.8 |
| 20260503224316 | 73 | 171 | 0.0 | 0.0 | 0.00 | 0.00 | 0.00 | 40 | 1005.7 |
| 20260503223821 | 73 | 291 | 0.0 | 6.0 | 0.00 | 0.00 | 0.00 | 39 | 1005.8 |
| 20260503223323 | 73 | 327 | 1.0 | 7.0 | 0.00 | 0.00 | 0.00 | 37 | 1005.7 |
| 20260503222829 | 74 | 232 | 3.0 | 9.0 | 0.00 | 0.00 | 0.00 | 37 | 1005.8 |
| 20260503222330 | 74 | 240 | 2.0 | 9.0 | 0.00 | 0.00 | 0.00 | 37 | 1005.8 |
| 20260503221855 | 74 | 355 | 2.0 | 4.0 | 0.00 | 0.00 | 0.00 | 37 | 1005.9 |
| 20260503221333 | 74 | 254 | 2.0 | 7.0 | 0.00 | 0.00 | 0.00 | 38 | 1005.8 |
| 20260503220825 | 74 | 257 | 2.0 | 7.0 | 0.00 | 0.00 | 0.00 | 37 | 1006.0 |
| 20260503220336 | 74 | 247 | 1.0 | 8.0 | 0.00 | 0.00 | 0.00 | 39 | 1005.9 |
| 20260503215825 | 74 | 274 | 3.0 | 8.0 | 0.00 | 0.00 | 0.00 | 40 | 1005.9 |
| 20260503215325 | 74 | 243 | 3.0 | 7.0 | 0.00 | 0.00 | 0.00 | 38 | 1006.1 |
| 20260503214832 | 74 | 241 | 3.0 | 6.0 | 0.00 | 0.00 | 0.00 | 37 | 1006.1 |
| 20260503214333 | 74 | 292 | 1.0 | 6.0 | 0.00 | 0.00 | 0.00 | 38 | 1006.1 |
| 20260503213840 | 75 | 142 | 2.0 | 6.0 | 0.00 | 0.00 | 0.00 | 37 | 1006.2 |
| 20260503213322 | 74 | 157 | 2.0 | 7.0 | 0.00 | 0.00 | 0.00 | 35 | 1006.1 |
| 20260503212845 | 74 | 231 | 2.0 | 7.0 | 0.00 | 0.00 | 0.00 | 36 | 1006.1 |
| 20260503212331 | 74 | 266 | 2.0 | 7.0 | 0.00 | 0.00 | 0.00 | 35 | 1006.2 |
| 20260503211832 | 74 | 306 | 2.0 | 6.0 | 0.00 | 0.00 | 0.00 | 35 | 1006.2 |
| 20260503211339 | 74 | 355 | 2.0 | 7.0 | 0.00 | 0.00 | 0.00 | 38 | 1006.2 |
| 20260503210816 | 74 | 168 | 2.0 | 6.0 | 0.00 | 0.00 | 0.00 | 38 | 1006.3 |
| 20260503210316 | 74 | 244 | 2.0 | 8.0 | 0.00 | 0.00 | 0.00 | 37 | 1006.4 |
| 20260503205843 | 74 | 265 | 2.0 | 8.0 | 0.00 | 0.00 | 0.00 | 37 | 1006.6 |
| 20260503205341 | 74 | 263 | 1.0 | 10.0 | 0.00 | 0.00 | 0.00 | 36 | 1006.7 |
| 20260503204846 | 74 | 259 | 3.0 | 10.0 | 0.00 | 0.00 | 0.00 | 35 | 1006.7 |
| 20260503204329 | 74 | 262 | 3.0 | 8.0 | 0.00 | 0.00 | 0.00 | 36 | 1006.7 |
| 20260503203827 | 73 | 171 | 2.0 | 6.0 | 0.00 | 0.00 | 0.00 | 37 | 1006.7 |
| 20260503203331 | 73 | 320 | 2.0 | 7.0 | 0.00 | 0.00 | 0.00 | 39 | 1006.7 |
| 20260503202839 | 73 | 174 | 2.0 | 7.0 | 0.00 | 0.00 | 0.00 | 38 | 1006.7 |
| 20260503202317 | 73 | 34 | 2.0 | 6.0 | 0.00 | 0.00 | 0.00 | 37 | 1006.7 |
| 20260503201817 | 73 | 263 | 2.0 | 8.0 | 0.00 | 0.00 | 0.00 | 38 | 1006.7 |
| 20260503201323 | 73 | 269 | 1.0 | 8.0 | 0.00 | 0.00 | 0.00 | 38 | 1006.8 |
| 20260503200844 | 73 | 265 | 2.0 | 8.0 | 0.00 | 0.00 | 0.00 | 39 | 1006.9 |
| 20260503200331 | 73 | 300 | 2.0 | 7.0 | 0.00 | 0.00 | 0.00 | 40 | 1006.8 |
| 20260503195829 | 73 | 106 | 2.0 | 7.0 | 0.00 | 0.00 | 0.00 | 38 | 1007.0 |
| 20260503195338 | 72 | 254 | 3.0 | 7.0 | 0.00 | 0.00 | 0.00 | 38 | 1006.9 |
| 20260503194817 | 72 | 13 | 1.0 | 8.0 | 0.00 | 0.00 | 0.00 | 39 | 1006.9 |
| 20260503194319 | 72 | 242 | 3.0 | 8.0 | 0.00 | 0.00 | 0.00 | 37 | 1007.1 |
| 20260503193820 | 72 | 269 | 2.0 | 5.0 | 0.00 | 0.00 | 0.00 | 40 | 1007.3 |
| 20260503193325 | 72 | 232 | 2.0 | 8.0 | 0.00 | 0.00 | 0.00 | 37 | 1007.2 |
| 20260503192825 | 72 | 301 | 3.0 | 8.0 | 0.00 | 0.00 | 0.00 | 40 | 1007.4 |
| 20260503192332 | 72 | 306 | 1.0 | 9.0 | 0.00 | 0.00 | 0.00 | 41 | 1007.4 |
| 20260503191831 | 71 | 289 | 2.0 | 9.0 | 0.00 | 0.00 | 0.00 | 39 | 1007.4 |
| 20260503191329 | 71 | 156 | 3.0 | 12.0 | 0.00 | 0.00 | 0.00 | 39 | 1007.4 |
| 20260503190815 | 71 | 292 | 2.0 | 8.0 | 0.00 | 0.00 | 0.00 | 42 | 1007.6 |
| 20260503190315 | 71 | 90 | 2.0 | 10.0 | 0.00 | 0.00 | 0.00 | 42 | 1007.6 |
| 20260503185816 | 70 | 298 | 3.0 | 10.0 | 0.00 | 0.00 | 0.00 | 40 | 1007.7 |
| 20260503185322 | 70 | 313 | 2.0 | 7.0 | 0.00 | 0.00 | 0.00 | 41 | 1007.6 |
| 20260503184825 | 70 | 304 | 3.0 | 12.0 | 0.00 | 0.00 | 0.00 | 41 | 1007.6 |
| 20260503184329 | 70 | 198 | 3.0 | 12.0 | 0.00 | 0.00 | 0.00 | 42 | 1007.7 |
| 20260503183829 | 69 | 273 | 3.0 | 9.0 | 0.00 | 0.00 | 0.00 | 44 | 1007.9 |
| 20260503183332 | 70 | 17 | 4.0 | 9.0 | 0.00 | 0.00 | 0.00 | 38 | 1007.9 |
| 20260503182840 | 71 | 236 | 2.0 | 6.0 | 0.00 | 0.00 | 0.00 | 41 | 1007.8 |
| 20260503182320 | 71 | 139 | 3.0 | 6.0 | 0.00 | 0.00 | 0.00 | 39 | 1007.9 |
| 20260503181818 | 70 | 341 | 2.0 | 8.0 | 0.00 | 0.00 | 0.00 | 40 | 1008.1 |
| 20260503181324 | 70 | 360 | 1.0 | 8.0 | 0.00 | 0.00 | 0.00 | 40 | 1008.1 |
| 20260503180822 | 69 | 360 | 3.0 | 10.0 | 0.00 | 0.00 | 0.00 | 43 | 1008.2 |
| 20260503180320 | 69 | 237 | 3.0 | 10.0 | 0.00 | 0.00 | 0.00 | 40 | 1008.2 |
| 20260503175826 | 69 | 360 | 4.0 | 10.0 | 0.00 | 0.00 | 0.00 | 41 | 1008.4 |
| 20260503175349 | 69 | 245 | 3.0 | 8.0 | 0.00 | 0.00 | 0.00 | 40 | 1008.5 |
| 20260503174826 | 69 | 88 | 2.0 | 6.0 | 0.00 | 0.00 | 0.00 | 41 | 1008.6 |
| 20260503174352 | 68 | 313 | 3.0 | 10.0 | 0.00 | 0.00 | 0.00 | 41 | 1008.8 |
| 20260503173829 | 68 | 205 | 3.0 | 10.0 | 0.00 | 0.00 | 0.00 | 41 | 1008.8 |
| 20260503173329 | 68 | 66 | 2.0 | 9.0 | 0.00 | 0.00 | 0.00 | 43 | 1009.1 |
| 20260503172814 | 67 | 323 | 1.0 | 10.0 | 0.00 | 0.00 | 0.00 | 45 | 1009.0 |
| 20260503172314 | 67 | 43 | 3.0 | 11.0 | 0.00 | 0.00 | 0.00 | 43 | 1009.1 |
| 20260503171840 | 67 | 312 | 3.0 | 13.0 | 0.00 | 0.00 | 0.00 | 44 | 1009.0 |
| 20260503171319 | 66 | 256 | 3.0 | 13.0 | 0.00 | 0.00 | 0.00 | 43 | 1009.0 |
| 20260503170845 | 66 | 60 | 4.0 | 9.0 | 0.00 | 0.00 | 0.00 | 42 | 1009.2 |
| 20260503170321 | 65 | 166 | 1.0 | 5.0 | 0.00 | 0.00 | 0.00 | 47 | 1009.1 |
| 20260503150825 | 54 | 360 | 1.0 | 3.0 | 0.00 | 0.00 | 0.00 | 57 | 1011.3 |
| 20260503150328 | 54 | 360 | 1.0 | 6.0 | 0.00 | 0.00 | 0.00 | 58 | 1011.5 |
| 20260503131340 | 51 | 360 | 0.0 | 2.0 | 0.00 | 0.00 | 0.00 | 62 | 1013.3 |
| 20260503130819 | 51 | 360 | 0.0 | 2.0 | 0.00 | 0.00 | 0.00 | 63 | 1013.4 |
| 20260503130326 | 50 | 360 | 0.0 | 2.0 | 0.00 | 0.00 | 0.00 | 63 | 1013.5 |
| 20260503110333 | 50 | 360 | 0.0 | 2.0 | 0.00 | 0.00 | 0.00 | 60 | 1013.6 |
| 20260503090344 | 49 | 360 | 1.0 | 3.0 | 0.00 | 0.00 | 0.00 | 56 | 1014.3 |
| 20260503081332 | 48 | 360 | 0.0 | 3.0 | 0.00 | 0.00 | 0.00 | 55 | 1014.7 |
| 20260503080815 | 48 | 360 | 0.0 | 4.0 | 0.00 | 0.00 | 0.00 | 56 | 1014.7 |
| 20260503080314 | 48 | 360 | 0.0 | 4.0 | 0.00 | 0.00 | 0.00 | 55 | 1014.6 |
| 20260503072821 | 48 | 360 | 1.0 | 4.0 | 0.00 | 0.00 | 0.00 | 54 | 1014.5 |
| 20260503072330 | 48 | 360 | 1.0 | 4.0 | 0.00 | 0.00 | 0.00 | 56 | 1014.6 |
| 20260503071831 | 48 | 360 | 0.0 | 3.0 | 0.00 | 0.00 | 0.00 | 56 | 1014.6 |
| 20260503071330 | 48 | 360 | 1.0 | 3.0 | 0.00 | 0.00 | 0.00 | 56 | 1014.7 |
| 20260503070820 | 48 | 360 | 0.0 | 3.0 | 0.00 | 0.00 | 0.00 | 56 | 1014.7 |
| 20260503070320 | 48 | 360 | 0.0 | 2.0 | 0.00 | 0.00 | 0.00 | 56 | 1014.8 |
| 20260503060329 | 48 | 360 | 0.0 | 2.0 | 0.00 | 0.00 | 0.00 | 54 | 1015.6 |
| 20260503054820 | 48 | 360 | 0.0 | 1.0 | 0.00 | 0.00 | 0.00 | 54 | 1015.6 |
| 20260503054321 | 48 | 360 | 0.0 | 1.0 | 0.00 | 0.00 | 0.00 | 53 | 1015.7 |
| 20260503053824 | 48 | 360 | 0.0 | 1.0 | 0.00 | 0.00 | 0.00 | 53 | 1015.6 |
| 20260503053329 | 48 | 360 | 0.0 | 2.0 | 0.00 | 0.00 | 0.00 | 54 | 1015.7 |
| 20260503052829 | 48 | 360 | 0.0 | 2.0 | 0.00 | 0.00 | 0.00 | 55 | 1015.7 |
| 20260503052336 | 47 | 360 | 0.0 | 1.0 | 0.00 | 0.00 | 0.00 | 55 | 1015.8 |
| 20260503051815 | 47 | 360 | 0.0 | 1.0 | 0.00 | 0.00 | 0.00 | 56 | 1015.8 |
| 20260503051317 | 47 | 360 | 0.0 | 2.0 | 0.00 | 0.00 | 0.00 | 56 | 1015.8 |
| 20260503050825 | 47 | 360 | 0.0 | 2.0 | 0.00 | 0.00 | 0.00 | 57 | 1015.9 |
| 20260503050323 | 46 | 360 | 0.0 | 2.0 | 0.00 | 0.00 | 0.00 | 61 | 1015.9 |
| 20260503045826 | 46 | 360 | 0.0 | 2.0 | 0.00 | 0.00 | 0.00 | 60 | 1015.8 |
| 20260503045326 | 45 | 360 | 0.0 | 2.0 | 0.00 | 0.00 | 0.00 | 60 | 1015.9 |
| 20260503044833 | 45 | 360 | 0.0 | 1.0 | 0.00 | 0.00 | 0.00 | 60 | 1015.9 |
| 20260503044319 | 45 | 360 | 0.0 | 1.0 | 0.00 | 0.00 | 0.00 | 65 | 1015.9 |
| 20260503043821 | 44 | 360 | 0.0 | 0.0 | 0.00 | 0.00 | 0.00 | 65 | 1015.9 |
| 20260503043329 | 44 | 360 | 0.0 | 1.0 | 0.00 | 0.00 | 0.00 | 65 | 1016.0 |
| 20260503042844 | 44 | 360 | 0.0 | 1.0 | 0.00 | 0.00 | 0.00 | 67 | 1016.0 |
| 20260503042329 | 44 | 360 | 0.0 | 1.0 | 0.00 | 0.00 | 0.00 | 69 | 1016.0 |
| 20260503041829 | 45 | 360 | 0.0 | 0.0 | 0.00 | 0.00 | 0.00 | 68 | 1016.1 |
| 20260503041337 | 45 | 360 | 0.0 | 0.0 | 0.00 | 0.00 | 0.00 | 67 | 1016.1 |
| 20260503040821 | 45 | 360 | 0.0 | 0.0 | 0.00 | 0.00 | 0.00 | 65 | 1016.2 |
| 20260503040319 | 45 | 360 | 0.0 | 1.0 | 0.00 | 0.00 | 0.00 | 67 | 1016.2 |
| 20260503035820 | 45 | 360 | 0.0 | 1.0 | 0.00 | 0.00 | 0.00 | 67 | 1016.3 |
| 20260503035324 | 45 | 360 | 0.0 | 0.0 | 0.00 | 0.00 | 0.00 | 66 | 1016.3 |
| 20260503034826 | 45 | 360 | 0.0 | 1.0 | 0.00 | 0.00 | 0.00 | 65 | 1016.4 |